格洛纳斯M-732 COSMOS 2458 [GLONASS-M]

导读 | 豆包AI

COSMOS 2458(GLONASS)是独联体(CIS)发射的格洛纳斯全球卫星导航系统卫星,于2009年12月14日发射入轨。作为GLONASS-M系列导航卫星,它属于GLONASS系统空间段,搭载铯原子钟等设备,运行于约19100公里中圆轨道,为全球用户提供定位、导航与授时服务,助力提升GLONASS星座覆盖与服务稳定性。

基本信息
目录编号:
36113
目录名称:
COSMOS 2458 (GLONASS)
国际标识:
2009-070C
轨道中心:
EARTH
卫星名称:
格洛纳斯M-732
卫星全名:
格洛纳斯M-732 COSMOS 2458 [GLONASS-M]
卫星状态:
在轨 (已飞行5934 天)
发射日期:
2009-12-14 UTC
国别 :
俄罗斯(独联体) (CIS)
星等 :
--
轨道信息
数据来源 国际轨道数据 AOE轨道数据
星历时间 2026-03-12T18:01:06+0800
1天前
查看轨道信息
2026-03-13T16:00:00+0800
1天前
查看轨道信息
半长轴 25509.605km 25509.605km
偏心率 0.0005802 0.0005676
轨道倾角 64.945° 64.946°
近地点辐角 309.741° 309.603°
升交点赤经 74.168° 74.136°
平近点角 233.843° 216.564°
近地点 19116.667km 19116.988km
远地点 19146.269km 19145.948km
周期 675.796分钟 675.796分钟
每日圈数 2.130822 2.130822
详细信息
平衡模式:
三轴稳定
覆盖范围:
全球
运营商:
列舍特涅夫卫星信息系统
运营商所在国:
俄罗斯
制造商(研发单位):
列舍特涅夫卫星信息系统
制造商所在国:
俄罗斯
使用方式:
暂无
卫星简介
格洛纳斯(GLONASS )是苏联/俄罗斯研制卫星导航系统。标准配置为24颗卫星,其中18颗卫星就能保证该系统为俄罗斯境内用户提供全部服务。该卫星已退役。
2D轨道图
3D轨道图
轨道高度分析图
轨道倾角分析图
轨道综合分析图
查看轨道综合分析图